Flag for U.S.A. Weather past 2 weeks in Oceanside, California, U.S.A.

Now
68 °F

Overcast.


Feels Like: 68 °F
Forecast: 64 / 77 °F
Wind: No wind

Location: Oceanside Weather Reporting Station

Current Time: Aug 21, 2014 at 3:38:26 AM

Latest Report: Aug 21, 2014 at 2:52 AM


Visibility: 10 mi

Pressure: 29.92 "Hg

Humidity: 82%

Dew point: 62 °F

Location of OceansideLocation

Historic Weather in Oceanside — Graph

°F

Oceanside temperature yesterday

Maximum temperature yesterday: 78 °F (at 1:52 PM)
Minimum temperature yesterday: 67 °F (at 6:52 AM)
Average temperature yesterday: 72 °F

Past Weeks' High & Low Weather Summary

 TemperatureHumidityPressure
High82 °F (Aug 16, 12:52 PM)91% (Aug 11, 1:52 AM)30.04 "Hg (Aug 11, 1:52 AM)
Low61 °F (Aug 15, 5:52 AM)51% (Aug 15, 1:52 PM)29.80 "Hg (Aug 18, 4:52 PM)
Average71 °F73%29.93 "Hg
* Reported Aug 6 1:52 AM — Aug 21 1:52 AM, Oceanside, Weather by CustomWeather, © 2014

Note: Actual official high and low records may vary slightly from our data, if they occured in-between our weather recording intervals... More about our weather records

Advertising

Oceanside weather history for previous 24 hours

 ConditionsComfort  
Time TempWeatherWind HumidityBarometerVisibility
1:52 AM
Aug 21
68 °FOvercast.No wind82%29.92 "Hg10 mi
12:52 AM67 °FPassing clouds.No wind85%29.92 "Hg10 mi
11:52 PM
Aug 20
67 °FClear.5 mph81%29.92 "Hg10 mi
10:52 PM69 °FOvercast.No wind79%29.92 "Hg10 mi
9:52 PM70 °FPassing clouds.No wind76%29.91 "Hg10 mi
8:52 PM70 °FPassing clouds.No wind76%29.90 "Hg10 mi
7:52 PM71 °FSunny.3 mph71%29.89 "Hg10 mi
6:52 PM73 °FScattered clouds.6 mph66%29.88 "Hg10 mi
5:52 PM76 °FOvercast.7 mph62%29.88 "Hg10 mi
4:52 PM75 °FPartly sunny.7 mph64%29.88 "Hg10 mi
3:52 PM77 °FScattered clouds.7 mph58%29.88 "Hg10 mi
2:52 PM75 °FPartly sunny.7 mph60%29.90 "Hg10 mi
1:52 PM78 °FPartly sunny.10 mph54%29.91 "Hg10 mi
12:52 PM75 °FOvercast.8 mph62%29.93 "Hg10 mi
11:52 AM76 °FPartly sunny.6 mph58%29.94 "Hg10 mi
10:52 AM75 °FScattered clouds.7 mph62%29.94 "Hg10 mi
9:52 AM72 °FSunny.5 mph66%29.93 "Hg10 mi
8:52 AM69 °FPartly sunny.No wind84%29.93 "Hg6 mi
7:59 AM68 °FLight rain. Broken clouds.No wind84%29.91 "Hg6 mi
6:52 AM67 °FThundershowers. Fog.No wind87%29.90 "Hg6 mi
5:59 AM68 °FThunderstorms. Passing clouds.No wind84%29.89 "Hg8 mi
4:52 AM69 °FThundershowers. Overcast.No wind76%29.88 "Hg9 mi
3:52 AM69 °FLight rain. Mostly cloudy.3 mph73%29.88 "Hg8 mi
Weather by CustomWeather, © 2014

See weather overviewHow to use our weather pages